Location: Baia Mare
(47.6567°N, 23.5850°E)
Time: 14:02:04
(UTC+03:00)

ISS - Pass Details

Date: 24 July 2019
Orbit: 409 x 418 km, 51.6° (Epoch: 21 July)

Event Time Altitude Azimuth Distance (km) Brightness Sun altitude
Rises 22:21:45 0° 274° (W) 2,354 0.9 -10.2°
Reaches altitude 10° 22:23:56 10° 282° (WNW) 1,490 0.0 -10.4°
Maximum altitude 22:27:07 41° 354° (N) 615 -2.5 -10.8°
Drops below altitude 10° 22:30:18 10° 67° (ENE) 1,487 -1.2 -11.2°
Enters shadow 22:32:23 - 74° (ENE) 2,309 -0.3 -11.4°
